Date_and_time,latitude,longitude,wind_speed,RelWindDirFrom,WindDirFrom,air_pressure,air_temperature,relative_humidity,Temp,platform_speed_wrt_ground,air_pressure_at_mean_sea_level,platform_orientation
2018-04-10 14:00,50.6304283333333,-96.98075,5.9,8.1,202,988.42,-4.0,99,2.43,0.0,1016.82,156.5
2018-04-10 14:10,50.63043,-96.9807516666667,6.0,8.8,206,988.29,-3.7,99,2.43,0.0,1016.66,156.5
2018-04-10 14:20,50.63043,-96.9807516666667,5.8,8.0,214,988.24,-3.6,99,2.43,0.0,1016.59,156.5
2018-04-10 14:30,50.63043,-96.9807516666667,6.9,8.7,214,988.17,-3.5,99,2.43,0.0,1016.50,156.5
2018-04-10 14:40,50.63043,-96.9807516666667,6.9,9.3,212,987.95,-3.3,98,2.41,0.0,1016.26,156.5
2018-04-10 14:50,50.63044,-96.9807716666667,6.1,8.0,208,987.82,-3.1,98,2.41,0.0,1016.11,156.5
2018-04-10 15:00,50.630435,-96.9807666666667,5.9,8.4,205,987.75,-2.8,97,2.41,0.0,1016.02,188.4
2018-04-10 15:10,50.630435,-96.9807666666667,6.5,8.9,201,987.65,-2.5,96,2.40,0.0,1015.89,188.4
2018-04-10 15:20,50.630435,-96.9807666666667,6.2,9.6,211,987.62,-2.2,95,2.40,0.0,1015.84,188.4
2018-04-10 15:30,50.630435,-96.980765,7.4,10.6,215,987.62,-1.9,92,2.41,0.0,1015.82,188.4
2018-04-10 15:40,50.6304366666667,-96.9807633333333,6.9,9.6,212,987.52,-1.7,91,2.41,0.0,1015.69,188.4
2018-04-10 15:50,50.6304366666667,-96.9807616666667,8.0,12.0,221,987.44,-1.4,88,2.41,0.0,1015.57,188.4
2018-04-10 16:00,50.6304383333333,-96.9807616666667,8.1,11.5,218,987.35,-1.1,86,2.41,0.0,1015.46,327.5
2018-04-10 16:10,50.6304383333333,-96.9807616666667,7.8,10.8,218,987.27,-0.9,85,2.42,0.0,1015.35,327.5
2018-04-10 16:20,50.63044,-96.98076,7.2,11.0,225,987.14,-0.5,84,2.42,0.0,1015.19,327.5
2018-04-10 16:30,50.6304566666667,-96.9807533333333,7.6,11.9,219,987.03,-0.1,81,2.42,0.0,1015.04,327.5
2018-04-10 16:40,50.6304466666667,-96.9807533333333,8.2,12.4,237,986.97,-0.1,80,2.42,0.0,1014.97,327.5
2018-04-10 16:50,50.6304466666667,-96.980755,8.2,11.5,232,986.93,0.0,78,2.42,0.0,1014.91,327.5
2018-04-10 17:00,50.6304483333333,-96.9807566666667,7.4,12.1,236,986.92,0.4,76,2.42,0.0,1014.87,360.0
2018-04-10 17:10,50.6304483333333,-96.9807583333333,7.1,11.5,246,986.85,0.6,75,2.42,0.0,1014.77,360.0
2018-04-10 17:20,50.63045,-96.9807533333333,7.7,11.9,240,986.74,0.6,72,2.42,0.0,1014.64,360.0
2018-04-10 17:30,50.63045,-96.9807533333333,6.5,10.5,238,986.65,0.9,71,2.43,0.0,1014.52,360.0
2018-04-10 17:40,50.63045,-96.9807516666667,8.2,12.3,242,986.54,1.0,71,2.43,0.0,1014.39,360.0
2018-04-10 17:50,50.63045,-96.9807516666667,6.5,12.6,226,986.35,1.2,70,2.43,0.0,1014.17,360.0
2018-04-10 18:00,50.63045,-96.9807516666667,7.4,12.1,231,986.22,1.4,68,2.44,0.0,1014.02,3.2
2018-04-10 18:10,50.6304483333333,-96.9807516666667,7.1,13.6,248,986.08,1.4,68,2.44,0.0,1013.84,3.2
2018-04-10 18:20,50.6304483333333,-96.9807516666667,7.3,12.0,254,985.98,1.5,66,2.44,0.0,1013.71,3.2
2018-04-10 18:30,50.6304483333333,-96.9807516666667,6.9,11.0,243,985.97,1.7,65,2.45,0.0,1013.70,3.2
2018-04-10 18:40,50.6304483333333,-96.9807516666667,7.4,11.7,243,985.79,1.8,64,2.46,0.0,1013.50,3.2
2018-04-10 18:50,50.6304483333333,-96.9807516666667,6.7,11.7,251,985.59,1.9,64,2.46,0.0,1013.27,3.2
2018-04-10 19:00,50.6304483333333,-96.9807516666667,5.8,8.8,245,985.33,2.1,62,2.47,0.0,1012.99,48.3
2018-04-10 19:10,50.630455,-96.9807816666667,7.9,13.4,226,985.28,2.5,59,2.47,0.0,1012.92,48.3
2018-04-10 19:20,50.6304333333333,-96.9807583333333,7.4,12.9,248,985.16,2.7,55,2.48,0.0,1012.76,48.3
2018-04-10 19:30,50.6304483333333,-96.98076,8.9,14.4,241,985.09,2.6,56,2.48,0.0,1012.69,48.3
2018-04-10 19:40,50.6304483333333,-96.9807616666667,9.5,15.3,245,985.02,2.7,55,2.49,0.0,1012.60,48.3
2018-04-10 19:50,50.6304466666667,-96.98076,9.6,14.5,244,984.94,3.0,53,2.49,0.0,1012.49,48.3
2018-04-10 20:00,50.6304466666667,-96.9807583333333,9.2,15.8,245,984.76,3.1,53,2.50,0.0,1012.31,0.0
2018-04-10 20:10,50.6304433333333,-96.9807566666667,9.8,17.6,248,984.70,3.3,51,2.51,0.0,1012.23,0.0
2018-04-10 20:20,50.6304433333333,-96.9807583333333,7.3,11.8,263,984.52,3.7,48,2.51,0.0,1012.02,0.0
2018-04-10 20:30,50.6304266666667,-96.9807216666667,5.8,10.0,259,984.36,3.4,50,2.52,0.0,1011.85,0.0
2018-04-10 20:40,50.6304316666667,-96.9807416666667,8.2,15.1,246,984.20,3.9,48,2.52,0.0,1011.67,0.0
2018-04-10 20:50,50.6304333333333,-96.9807483333333,9.7,14.6,253,984.20,3.8,48,2.52,0.0,1011.66,0.0
2018-04-10 21:00,50.6304333333333,-96.980755,8.4,13.4,257,984.07,4.0,46,2.54,0.0,1011.50,360.0
2018-04-10 21:10,50.6304333333333,-96.9807566666667,9.2,14.7,256,984.01,3.9,47,2.54,0.0,1011.43,360.0
2018-04-10 21:20,50.6304333333333,-96.9807583333333,9.5,13.6,255,984.02,4.0,48,2.55,0.0,1011.43,360.0
2018-04-10 21:30,50.6304316666667,-96.9807583333333,9.9,17.3,245,984.04,3.7,49,2.55,0.0,1011.47,360.0
2018-04-10 21:40,50.6304416666667,-96.980745,10.2,15.8,250,984.06,3.5,49,2.55,0.0,1011.48,360.0
2018-04-10 21:50,50.63043,-96.9807483333333,8.0,13.8,274,983.93,3.7,47,2.55,0.0,1011.34,360.0
2018-04-10 22:00,50.6304333333333,-96.9807533333333,8.8,13.4,248,983.90,3.7,48,2.56,0.0,1011.30,161.1
2018-04-10 22:10,50.6304316666667,-96.9807533333333,9.5,13.8,250,983.81,3.7,48,2.56,0.0,1011.18,161.1
2018-04-10 22:20,50.63043,-96.980755,9.3,15.8,261,983.68,4.1,46,2.57,0.0,1011.05,161.1
2018-04-10 22:30,50.63043,-96.980755,9.8,15.2,254,983.63,4.0,46,2.58,0.0,1010.97,161.1
2018-04-10 22:40,50.6304316666667,-96.9807566666667,8.8,12.8,256,983.53,3.9,46,2.59,0.0,1010.88,161.1
2018-04-10 22:50,50.6304333333333,-96.9807566666667,8.7,16.4,258,983.50,4.0,47,2.59,0.0,1010.84,161.1
2018-04-10 23:00,50.6304333333333,-96.980755,8.0,12.3,254,983.32,4.3,46,2.60,0.0,1010.64,161.1
2018-04-10 23:10,50.6304333333333,-96.980755,7.2,14.2,256,983.20,4.4,45,2.61,0.0,1010.51,161.1
2018-04-10 23:20,50.6304333333333,-96.980755,8.0,13.1,268,983.16,4.6,43,2.62,0.0,1010.47,161.1
2018-04-10 23:30,50.630435,-96.9807533333333,9.1,13.7,261,983.21,4.4,44,2.62,0.0,1010.54,161.1
2018-04-10 23:40,50.630435,-96.980755,7.1,12.2,267,983.20,4.0,45,2.62,0.0,1010.54,161.1
